TimeAKDT,TemperatureF,Dew PointF,Humidity,Sea Level PressureIn,VisibilityMPH,Wind Direction,Wind SpeedMPH,Gust SpeedMPH,PrecipitationIn,Events,Conditions,WindDirDegrees,DateUTC
12:16 AM,30.2,28.4,93,29.82,10.0,West,3.5,-,N/A,,Clear,270,2013-10-21 08:16:00
12:36 AM,30.2,28.4,93,29.82,10.0,Calm,Calm,-,N/A,,Clear,0,2013-10-21 08:36:00
12:56 AM,30.2,28.4,93,29.83,10.0,Calm,Calm,-,N/A,,Clear,0,2013-10-21 08:56:00
1:16 AM,32.0,28.4,87,29.83,10.0,Calm,Calm,-,N/A,,Mostly Cloudy,0,2013-10-21 09:16:00
1:36 AM,32.0,30.2,93,29.84,10.0,Calm,Calm,-,N/A,,Overcast,0,2013-10-21 09:36:00
1:56 AM,30.2,28.4,93,29.84,10.0,Calm,Calm,-,N/A,,Overcast,0,2013-10-21 09:56:00
2:16 AM,33.8,30.2,87,29.84,10.0,Calm,Calm,-,N/A,,Mostly Cloudy,0,2013-10-21 10:16:00
2:36 AM,30.2,28.4,93,29.85,10.0,Calm,Calm,-,N/A,,Mostly Cloudy,0,2013-10-21 10:36:00
2:56 AM,32.0,30.2,93,29.85,10.0,Calm,Calm,-,N/A,,Partly Cloudy,0,2013-10-21 10:56:00
3:16 AM,30.2,28.4,93,29.86,10.0,Calm,Calm,-,N/A,,Clear,0,2013-10-21 11:16:00
3:36 AM,33.8,30.2,87,29.86,10.0,Calm,Calm,-,N/A,,Partly Cloudy,0,2013-10-21 11:36:00
3:56 AM,30.2,28.4,93,29.86,10.0,Calm,Calm,-,N/A,,Clear,0,2013-10-21 11:56:00
4:16 AM,30.2,26.6,86,29.87,10.0,Calm,Calm,-,N/A,,Clear,0,2013-10-21 12:16:00
4:36 AM,28.4,26.6,93,29.87,10.0,Calm,Calm,-,N/A,,Clear,0,2013-10-21 12:36:00
4:56 AM,30.2,30.2,100,29.86,10.0,Calm,Calm,-,N/A,,Clear,0,2013-10-21 12:56:00
5:16 AM,30.2,26.6,86,29.87,10.0,Calm,Calm,-,N/A,,Clear,0,2013-10-21 13:16:00
5:36 AM,30.2,26.6,86,29.87,10.0,Calm,Calm,-,N/A,,Clear,0,2013-10-21 13:36:00
5:56 AM,30.2,28.4,93,29.88,10.0,Calm,Calm,-,N/A,,Clear,0,2013-10-21 13:56:00
6:16 AM,28.4,26.6,93,29.88,10.0,Calm,Calm,-,N/A,,Clear,0,2013-10-21 14:16:00
6:36 AM,28.4,28.4,100,29.88,10.0,Calm,Calm,-,N/A,,Clear,0,2013-10-21 14:36:00
6:56 AM,28.4,26.6,93,29.88,10.0,Calm,Calm,-,N/A,,Clear,0,2013-10-21 14:56:00
7:16 AM,28.4,24.8,86,29.88,10.0,Calm,Calm,-,N/A,,Clear,0,2013-10-21 15:16:00
7:36 AM,26.6,24.8,93,29.89,10.0,Calm,Calm,-,N/A,,Clear,0,2013-10-21 15:36:00
7:56 AM,26.6,26.6,100,29.89,10.0,Calm,Calm,-,N/A,,Scattered Clouds,0,2013-10-21 15:56:00
8:16 AM,28.4,26.6,93,29.90,10.0,Calm,Calm,-,N/A,,Mostly Cloudy,0,2013-10-21 16:16:00
8:36 AM,26.6,24.8,93,29.90,10.0,Calm,Calm,-,N/A,,Mostly Cloudy,0,2013-10-21 16:36:00
8:56 AM,26.6,26.6,100,29.91,1.5,Calm,Calm,-,N/A,,Overcast,0,2013-10-21 16:56:00
9:16 AM,26.6,24.8,93,29.92,7.0,Calm,Calm,-,N/A,,Overcast,0,2013-10-21 17:16:00
9:36 AM,26.6,24.8,93,29.92,8.0,Calm,Calm,-,N/A,,Overcast,0,2013-10-21 17:36:00
9:56 AM,26.6,26.6,100,29.93,10.0,Calm,Calm,-,N/A,,Mostly Cloudy,0,2013-10-21 17:56:00
10:16 AM,28.4,26.6,93,29.93,10.0,Calm,Calm,-,N/A,,Overcast,0,2013-10-21 18:16:00
10:36 AM,28.4,26.6,93,29.93,10.0,Calm,Calm,-,N/A,,Mostly Cloudy,0,2013-10-21 18:36:00
10:56 AM,30.2,28.4,93,29.93,1.8,Calm,Calm,-,N/A,,Overcast,0,2013-10-21 18:56:00
11:16 AM,30.2,28.4,93,29.94,10.0,Calm,Calm,-,N/A,,Scattered Clouds,0,2013-10-21 19:16:00
11:36 AM,32.0,30.2,93,29.93,10.0,Calm,Calm,-,N/A,,Partly Cloudy,0,2013-10-21 19:36:00
11:56 AM,30.2,28.4,93,29.94,10.0,Calm,Calm,-,N/A,,Clear,0,2013-10-21 19:56:00
12:16 PM,33.8,30.2,87,29.95,10.0,Calm,Calm,-,N/A,,Clear,0,2013-10-21 20:16:00
12:36 PM,33.8,30.2,87,29.95,10.0,Calm,Calm,-,N/A,,Clear,0,2013-10-21 20:36:00
12:56 PM,35.6,32.0,87,29.96,10.0,Calm,Calm,-,N/A,,Clear,0,2013-10-21 20:56:00
1:16 PM,35.6,32.0,87,29.96,10.0,Calm,Calm,-,N/A,,Partly Cloudy,0,2013-10-21 21:16:00
1:36 PM,35.6,32.0,87,29.96,10.0,Calm,Calm,-,N/A,,Partly Cloudy,0,2013-10-21 21:36:00
1:56 PM,35.6,32.0,87,29.96,10.0,Calm,Calm,-,N/A,,Clear,0,2013-10-21 21:56:00
2:16 PM,37.4,32.0,81,29.96,10.0,Calm,Calm,-,N/A,,Clear,0,2013-10-21 22:16:00
2:36 PM,37.4,32.0,81,29.96,10.0,Calm,Calm,-,N/A,,Scattered Clouds,0,2013-10-21 22:36:00
2:56 PM,37.4,32.0,81,29.96,10.0,Calm,Calm,-,N/A,,Partly Cloudy,0,2013-10-21 22:56:00
3:36 PM,37.4,30.2,75,29.96,10.0,Calm,Calm,-,N/A,,Scattered Clouds,0,2013-10-21 23:36:00
3:56 PM,37.4,30.2,75,29.96,10.0,Calm,Calm,-,N/A,,Mostly Cloudy,0,2013-10-21 23:56:00
4:16 PM,37.4,32.0,81,29.96,10.0,Calm,Calm,-,N/A,,Overcast,0,2013-10-22 00:16:00
4:36 PM,37.4,32.0,81,29.96,10.0,Calm,Calm,-,N/A,,Mostly Cloudy,0,2013-10-22 00:36:00
4:56 PM,37.4,30.2,75,29.96,10.0,Calm,Calm,-,N/A,,Clear,0,2013-10-22 00:56:00
5:16 PM,37.4,32.0,81,29.96,10.0,Calm,Calm,-,N/A,,Clear,0,2013-10-22 01:16:00
5:36 PM,37.4,30.2,75,29.96,10.0,Calm,Calm,-,N/A,,Clear,0,2013-10-22 01:36:00
5:56 PM,35.6,30.2,81,29.95,10.0,Calm,Calm,-,N/A,,Clear,0,2013-10-22 01:56:00
6:16 PM,35.6,30.2,81,29.96,10.0,Calm,Calm,-,N/A,,Clear,0,2013-10-22 02:16:00
6:36 PM,35.6,30.2,81,29.96,10.0,Calm,Calm,-,N/A,,Clear,0,2013-10-22 02:36:00
6:56 PM,35.6,30.2,81,29.96,10.0,Calm,Calm,-,N/A,,Clear,0,2013-10-22 02:56:00
7:16 PM,35.6,30.2,81,29.96,10.0,Calm,Calm,-,N/A,,Clear,0,2013-10-22 03:16:00
7:36 PM,35.6,30.2,81,29.96,10.0,Calm,Calm,-,N/A,,Clear,0,2013-10-22 03:36:00
7:56 PM,35.6,30.2,81,29.96,10.0,Calm,Calm,-,N/A,,Clear,0,2013-10-22 03:56:00
8:16 PM,35.6,30.2,81,29.97,10.0,Calm,Calm,-,N/A,,Clear,0,2013-10-22 04:16:00
8:36 PM,33.8,30.2,87,29.97,10.0,Calm,Calm,-,N/A,,Clear,0,2013-10-22 04:36:00
8:56 PM,33.8,30.2,87,29.96,10.0,Calm,Calm,-,N/A,,Clear,0,2013-10-22 04:56:00
9:16 PM,30.2,26.6,86,29.97,10.0,Calm,Calm,-,N/A,,Clear,0,2013-10-22 05:16:00
9:36 PM,33.8,30.2,87,29.97,10.0,Calm,Calm,-,N/A,,Clear,0,2013-10-22 05:36:00
9:56 PM,33.8,28.4,81,29.97,10.0,Calm,Calm,-,N/A,,Clear,0,2013-10-22 05:56:00
10:16 PM,33.8,30.2,87,29.98,10.0,Calm,Calm,-,N/A,,Clear,0,2013-10-22 06:16:00
10:36 PM,33.8,26.6,75,29.98,10.0,Calm,Calm,-,N/A,,Clear,0,2013-10-22 06:36:00
10:56 PM,32.0,26.6,80,29.98,10.0,Calm,Calm,-,N/A,,Clear,0,2013-10-22 06:56:00
11:16 PM,30.2,26.6,86,29.98,10.0,Calm,Calm,-,N/A,,Clear,0,2013-10-22 07:16:00
11:36 PM,30.2,28.4,93,29.98,10.0,Calm,Calm,-,N/A,,Clear,0,2013-10-22 07:36:00
11:56 PM,30.2,26.6,86,29.98,10.0,Calm,Calm,-,N/A,,Clear,0,2013-10-22 07:56:00